User: anonymous
Location: Unspecified
(0.0000°N, 0.0000°E)
Time: 12:26:29
(UTC+00:00)
Language:

Courier 1B - Orbit

View from above orbital plane
View from above orbital plane
View from above satellite
View from above satellite

Ground track
Ground track

The orbit data is extracted from the following two-line orbital elements,

1 00058U 60013A   14275.08969947  .00000101  00000-0  27183-4 0  7810
2 00058 028.3267 233.9790 0165129 084.7137 277.2226 13.46281369657919
Epoch (UTC): 02 October 2014 02:09:10
Eccentricity: 0.0165129
inclination: 28.3267°
perigee height: 963 km
apogee height: 1209 km
right ascension of ascending node: 233.9790°
argument of perigee: 84.7137°
revolutions per day: 13.46281369
mean anomaly at epoch: 277.2226°
orbit number at epoch: 65791

The dashed part of the orbit path shows where the satellite is in the earth's shadow,  

DLR